Location: Griffith
(32.3693°N, 97.0783°W)
Time: 13:14:17
(UTC+00:00)

Daily predictions for brighter satellites

Satellite Brightness Start Highest point End
(mag) Time Altitude Azimuth Time Altitude Azimuth Time Altitude Azimuth
BlueWalker 3 3.3 12:01:32 10° NNW 12:05:09 39° NE 12:08:45 10° ESE
Cosmos 1536 3.9 12:04:22 10° N 12:08:12 50° E 12:12:03 10° SSE
Cosmos 2341 Rocket 4.1 12:05:20 10° SSW 12:11:40 67° W 12:18:02 10° N
Cosmos 2218 Rocket 4.1 12:06:52 10° S 12:13:05 89° E 12:19:27 10° N
